Tracking 28790 objects as of 19-Apr-2024
HD Live streaming from Space Station
objects crossing your sky now

INTELSAT 3-F2

Track INTELSAT 3-F2 now!
INTELSAT 3-F2 is classified as:


NORAD ID: 3623
Int'l Code: 1968-116A
Perigee: 38,463.5 km
Apogee: 39,293.6 km
Inclination: 6.1 °
Period: 1,596.5 minutes
Semi major axis: 45249 km
RCS: 2.5118 m2 (large)
Launch date: December 19, 1968
Source: International Telecommunications Satellite Organization (ITSO)
Launch site: AIR FORCE EASTERN TEST RANGE (AFETR)
Your satellite tracking list
Your tracking list is empty




NASA's NSSDC Master Catalog

Two Line Element Set (TLE):
1 03623U 68116A   24109.92076727 -.00000134  00000-0  00000-0 0  9991
2 03623   6.0687 297.9298 0091726  75.6153 310.7481  0.90194690 75667
Source of the keplerian elements: AFSPC